Location: Newark
(48.5178°N, 4.2361°E)
Time: 23:21:49
(UTC+00:00)

Envisat - Pass Details

Date: 11 March 2021
Orbit: 764 x 766 km, 98.1° (Epoch: 12 April)

Event Time Altitude Azimuth Distance (km) Brightness Sun altitude
Rises 05:00:02 0° 18° (NNE) 3,244 6.6 -11.5°
Reaches altitude 10° 05:02:26 10° 24° (NNE) 2,313 5.9 -11.1°
Maximum altitude 05:07:21 47° 99° (E) 1,009 4.2 -10.3°
Drops below altitude 10° 05:12:13 10° 173° (S) 2,295 5.5 -9.5°
Sets 05:14:36 0° 179° (S) 3,216 6.2 -9.1°
